Temperature
30 31 31 30 30 31 30 30 29 29 28 28 28 27 27 26 25 24 24 23 22 21 21 20 20 20 20 19 19 19 18 18 18 18 17 17 17 17 17 17 16 16 16 16
29 30 30 30 30 30 30 30 30 29 28 28 27 26 26 25 25 24 23 22 21 20 20 20 19 19 19 19 19 18 18 18 17 17 17 17 17 17 16 16 16 16 16 16
27 29 29 28 30 30 30 30 29 28 27 27 27 26 25 24 24 23 23 22 21 20 20 19 19 19 18 18 18 18 18 17 17 17 17 16 16 16 16 16 16 16 16 16
27 27 26 28 30 30 29 29 29 28 27 27 26 25 24 24 23 22 21 21 20 20 19 19 19 18 18 18 18 18 17 17 17 16 16 16 16 16 16 15 15 15 15 15
26 26 27 28 29 29 28 28 28 28 27 26 25 24 23 23 22 21 21 20 20 19 19 18 18 18 18 17 17 17 17 16 16 16 16 16 16 15 15 15 15 15 15 15
26 25 25 27 28 28 28 26 27 27 26 25 25 24 23 22 21 21 20 19 19 19 18 18 17 17 17 17 16 16 16 16 16 16 16 15 15 15 15 15 15 15 14 14
25 25 26 27 27 28 26 25 26 25 25 24 24 23 22 21 20 20 19 19 18 18 18 17 17 17 16 16 16 16 16 16 15 15 15 15 15 15 15 15 15 14 14 14
25 24 24 26 27 25 24 24 24 24 23 23 22 21 21 20 20 19 19 18 18 17 17 17 16 16 16 16 16 15 15 15 15 15 15 15 15 15 14 14 14 14 14 14
24 24 24 24 23 23 23 23 23 23 22 21 21 20 20 19 19 18 18 18 17 17 16 16 16 16 16 15 15 15 15 15 15 15 15 15 15 14 14 14 14 14 13 13
24 24 23 23 23 22 22 22 22 21 21 20 20 20 19 19 18 18 17 17 16 16 16 16 15 15 15 15 15 15 15 15 15 15 15 14 14 14 14 14 14 13 13 13
23 23 23 22 22 21 21 21 21 21 20 20 19 19 18 18 17 17 17 16 16 16 15 15 15 15 15 15 15 14 14 14 14 14 14 14 14 14 14 14 14 14 13 13
22 22 22 21 21 21 20 20 20 20 20 19 19 18 18 17 17 17 16 16 16 15 15 15 15 14 14 14 14 14 14 14 14 14 14 14 14 14 14 14 13 13 13 13
21 21 21 20 20 20 20 20 19 19 19 19 18 18 17 17 17 16 16 16 15 15 15 14 14 14 14 14 14 14 14 14 14 14 14 14 14 14 13 13 13 13 13 13
20 19 19 19 19 19 19 19 19 19 18 18 18 17 17 17 16 16 16 15 15 15 14 14 14 14 13 14 14 14 14 14 14 14 14 14 14 14 13 13 13 13 13 12
19 19 19 19 19 19 19 19 18 18 18 17 17 17 16 16 16 15 15 15 15 14 14 14 14 14 13 13 13 13 13 14 14 14 14 14 13 13 13 13 13 12 12 12
19 19 18 18 18 18 18 18 18 18 17 17 17 16 16 15 15 15 15 14 14 14 14 13 13 13 13 13 13 13 13 13 13 13 13 13 13 13 13 13 12 12 12 12
18 18 18 18 18 18 18 18 17 17 17 16 16 15 15 15 15 14 14 14 14 13 13 13 13 13 13 13 13 13 13 13 13 13 13 13 13 13 12 12 12 12 12 11
18 18 18 17 17 17 17 17 17 16 16 16 15 15 15 14 14 14 14 14 13 13 13 13 13 13 13 13 13 13 13 13 13 13 13 13 12 12 12 12 12 11 11 11
18 17 17 17 17 17 16 16 16 15 15 15 15 14 14 14 14 14 14 13 13 13 13 13 13 12 12 13 13 13 13 13 13 13 13 12 12 12 12 11 11 11 11 11
17 17 17 17 16 16 16 15 15 15 15 14 14 14 14 14 13 13 13 13 13 13 13 12 12 12 12 12 13 13 13 13 13 12 12 12 12 11 11 11 11 10 10 10
17 16 16 16 15 15 15 15 14 14 14 14 14 13 13 13 13 13 13 13 13 13 12 12 12 12 12 12 12 12 12 13 12 12 12 11 11 11 11 10 10 10 10 10
16 16 15 15 15 14 14 14 14 14 13 13 13 13 13 13 13 13 13 13 13 13 12 12 12 12 12 12 12 12 12 12 12 12 12 11 11 10 10 10 10 10 9 9
15 15 15 14 14 14 14 13 13 13 13 13 13 13 13 12 13 13 12 12 12 12 12 12 12 12 12 12 12 12 12 11 11 11 11 11 11 10 10 10 9 9 9 9
15 14 14 14 14 13 13 13 13 13 12 12 12 12 12 12 12 12 12 12 12 12 12 12 12 12 12 11 11 11 11 11 11 11 11 10 10 10 9 9 9 9 9 8
14 14 14 13 13 13 13 13 12 12 12 12 12 12 12 12 12 12 12 12 12 12 12 12 11 11 11 11 11 11 11 10 10 10 10 10 10 9 9 9 9 8 8 8
13 13 13 13 13 13 13 13 13 13 13 13 12 12 12 12 12 12 12 12 12 12 11 11 11 11 11 11 10 10 10 10 10 10 10 9 9 9 9 8 8 8 8 8
13 13 13 13 13 13 13 13 13 13 13 12 12 12 12 12 12 12 12 12 12 11 11 11 11 11 11 10 10 10 10 10 9 9 9 9 9 8 8 8 8 8 8 7
Wind_Speed
15 14 11 10 10 10 11 10 9 7 3 3 3 3 4 4 6 6 5 5 4 3 3 3 3 3 3 3 2 3 3 3 3 3 2 2 2 2 2 2 2 2 2 2
14 15 13 14 13 12 11 10 8 6 3 3 3 2 3 3 4 4 3 4 3 3 2 3 2 2 1 1 2 2 2 2 2 3 2 2 2 2 2 1 1 1 1 1
14 13 13 15 12 11 9 8 8 5 2 3 4 3 2 3 3 3 3 3 4 3 2 2 2 2 1 1 1 2 2 2 2 2 2 2 2 1 1 1 1 1 1 1
12 11 14 9 5 7 8 7 4 1 3 3 3 3 3 3 4 4 4 4 4 3 3 2 2 2 1 1 1 2 2 2 2 2 2 1 1 1 1 1 1 1 0 0
10 12 12 8 6 6 7 5 2 1 2 5 5 4 3 5 5 5 4 3 3 2 2 2 2 2 2 1 1 1 2 2 2 2 1 1 1 1 1 0 1 1 1 1
10 12 11 5 3 5 5 6 1 2 2 3 4 2 2 4 5 4 4 3 2 2 2 2 2 2 2 1 1 0 1 1 1 1 2 1 1 1 1 1 0 1 1 1
13 13 8 3 4 5 5 1 2 3 3 2 1 1 3 4 4 4 3 3 3 3 3 3 2 2 1 1 1 1 0 1 1 1 2 2 1 1 1 1 1 1 1 2
10 11 7 4 4 2 2 4 3 4 4 5 5 5 4 4 3 3 2 2 3 3 3 2 2 1 0 1 1 0 1 1 1 1 2 2 1 1 1 1 2 2 2 2
4 2 2 7 6 4 3 4 4 4 4 4 4 3 3 4 3 2 2 2 2 2 2 2 1 1 1 1 1 0 0 1 1 2 2 2 3 3 2 2 2 2 2 1
4 2 0 3 4 4 3 4 3 3 3 3 2 2 3 3 3 3 2 2 2 2 2 2 1 1 1 1 1 0 1 1 1 2 2 2 2 2 2 2 1 1 1 1
5 3 2 2 2 3 3 3 2 2 2 2 2 2 2 2 2 2 1 1 1 1 1 1 1 1 1 1 0 1 1 2 2 2 2 2 2 1 2 1 2 1 0 0
5 2 3 2 1 0 1 2 1 2 2 1 1 1 1 1 1 0 0 0 1 0 1 0 1 1 1 1 0 1 1 1 1 2 2 3 3 2 2 2 4 4 3 2
1 3 3 2 2 2 2 2 2 1 1 1 1 1 1 1 1 1 0 0 0 1 1 0 1 1 0 0 1 1 2 2 2 1 2 3 3 3 2 1 2 2 3 2
2 1 1 2 3 1 1 1 1 1 1 1 1 1 1 1 0 1 0 0 1 1 1 1 1 1 1 1 1 2 2 1 1 1 1 1 2 2 2 2 2 1 2 3
2 2 2 2 2 1 1 1 2 2 1 1 1 1 1 1 0 1 0 0 1 1 1 1 1 1 1 1 2 2 2 1 1 1 1 1 0 1 1 1 1 1 2 2
3 2 2 3 2 1 1 1 1 2 1 1 1 1 1 1 1 0 0 0 1 1 1 1 1 1 1 1 1 2 2 1 1 1 0 0 0 0 0 0 0 1 1 1
4 4 4 3 3 2 2 1 1 1 1 2 1 1 1 1 1 1 1 1 0 0 1 0 0 1 0 0 1 2 1 1 1 1 1 0 0 0 0 0 1 1 1 2
4 5 4 4 3 2 1 1 0 1 1 1 1 1 2 2 1 1 1 1 1 1 2 1 1 0 0 0 1 1 1 1 1 0 1 1 1 1 0 1 1 1 2 2
3 4 3 3 2 2 1 1 0 1 1 1 2 2 2 1 0 0 1 2 1 1 0 0 1 0 0 0 1 1 1 1 1 1 1 2 1 1 1 1 1 1 1 1
3 3 3 3 2 1 1 1 1 1 1 1 1 1 1 1 1 1 1 1 1 1 1 1 1 1 1 0 1 2 1 0 1 1 2 1 1 1 1 1 1 1 2 1
3 3 3 3 2 1 1 1 1 1 1 1 1 1 1 1 1 1 1 1 1 0 1 2 2 1 1 1 2 1 0 1 1 1 1 1 1 1 1 1 1 1 1 1
3 2 2 2 1 1 1 1 0 1 1 1 1 2 2 2 3 2 2 2 1 2 2 1 2 1 1 2 1 0 1 1 1 0 1 1 1 1 1 1 1 1 1 1
2 2 1 0 0 0 1 1 1 1 2 2 2 2 3 2 3 3 2 2 2 3 2 1 2 3 1 1 0 0 1 1 2 1 1 1 1 1 1 1 0 1 1 1
2 2 1 0 0 1 1 1 1 1 2 2 2 2 3 4 3 2 2 3 3 4 3 3 4 3 2 2 1 1 0 0 1 1 1 1 1 0 0 1 1 1 1 1
2 1 1 1 1 1 1 1 2 2 3 3 3 4 4 3 2 1 2 3 5 5 3 5 7 5 3 1 0 0 0 0 1 1 1 1 1 0 1 1 0 0 1 1
2 1 1 1 1 1 2 2 2 3 3 2 2 3 2 1 1 1 2 3 3 4 3 3 4 4 2 1 1 0 0 1 1 1 1 1 1 1 0 1 1 1 1 1
2 1 1 1 1 1 1 1 1 2 1 1 2 1 1 1 1 1 2 2 2 2 2 2 2 2 1 1 1 0 0 0 0 0 0 0 1 1 1 1 1 1 1 1
Wind_Direction
271 277 281 281 279 273 270 275 278 276 247 187 134 107 95 101 105 95 88 83 73 72 66 65 71 90 123 142 149 155 158 168 174 178 178 181 186 194 197 205 216 221 236 249
270 273 275 273 269 269 270 275 272 268 254 153 124 84 84 90 101 102 104 102 96 80 83 90 89 81 95 138 138 147 163 172 166 166 167 181 192 186 196 214 218 231 250 262
270 271 274 264 265 269 276 278 282 278 246 174 147 134 127 128 129 131 118 96 94 92 87 98 115 101 76 121 139 145 150 153 151 158 166 177 197 188 203 210 181 216 276 277
265 269 261 265 281 272 269 271 275 239 183 186 129 116 89 90 102 101 84 81 76 84 95 88 79 84 75 66 120 136 141 139 143 158 163 157 173 185 191 186 182 196 266 350
262 260 258 259 272 286 278 273 297 325 101 115 105 109 89 72 87 99 91 82 83 85 83 72 62 52 55 53 69 121 138 143 147 156 156 158 181 186 163 154 182 169 144 134
257 265 267 261 279 286 267 251 308 71 115 129 143 193 136 86 85 95 96 95 94 90 78 73 59 60 46 35 44 105 155 147 138 161 178 186 215 218 198 175 192 203 177 169
249 258 262 301 302 279 251 265 42 94 94 129 128 66 107 90 81 92 90 90 81 77 71 57 53 80 56 5 310 313 317 155 157 188 196 176 173 179 179 207 218 237 237 198
247 254 254 341 311 315 51 48 64 77 77 72 80 88 92 88 77 87 99 92 84 74 63 53 42 75 91 327 313 301 279 230 186 199 228 190 169 188 206 222 229 235 241 236
267 266 36 32 50 54 64 63 61 78 89 96 102 101 87 78 74 75 84 76 77 67 65 69 59 42 15 349 331 301 224 233 213 188 196 195 201 207 212 215 230 231 230 239
274 208 55 12 41 32 56 77 81 99 103 112 112 103 85 79 69 60 64 69 76 53 33 11 23 48 27 357 313 236 205 233 222 173 176 182 186 185 203 216 229 239 232 241
268 271 292 302 21 40 50 72 99 111 125 128 116 118 92 81 70 56 38 47 60 50 18 359 359 356 26 356 308 259 236 226 227 197 188 189 191 205 199 173 177 199 275 335
273 312 295 296 303 116 158 173 171 167 176 170 176 142 126 133 107 90 359 356 15 325 280 333 7 4 11 301 209 234 249 242 231 204 197 195 179 158 75 111 148 144 151 165
309 303 309 325 295 273 233 223 233 222 191 180 148 134 147 160 159 151 156 254 220 263 262 244 198 164 216 230 221 238 258 256 265 241 213 208 192 182 169 117 106 134 155 148
42 16 286 279 275 263 230 221 234 236 230 200 164 158 164 151 160 111 96 238 208 208 242 255 226 216 246 195 218 252 260 251 249 246 241 234 198 190 196 191 185 135 136 142
233 236 242 245 252 221 226 219 204 199 201 174 162 168 159 129 63 63 53 241 209 231 257 277 281 277 240 227 209 232 262 273 255 261 257 238 185 190 203 190 175 162 131 113
209 209 215 212 212 215 239 275 246 203 187 173 165 173 162 155 173 160 31 318 245 253 265 283 300 300 270 254 235 222 226 230 237 244 252 259 125 225 170 160 192 113 125 106
185 202 209 199 210 221 234 262 261 190 177 189 176 161 164 188 190 168 207 286 308 301 326 344 318 349 349 257 272 265 256 179 181 221 285 333 51 43 56 95 73 72 93 116
205 209 206 198 197 206 229 217 173 143 158 148 157 198 211 221 245 235 178 150 97 59 32 12 10 49 163 127 276 267 258 200 176 150 81 69 71 65 61 65 54 44 63 104
177 170 164 166 169 182 192 174 136 112 135 181 210 220 217 219 206 279 138 138 160 173 155 325 286 147 155 232 269 235 247 221 161 117 106 97 93 55 42 46 47 33 24 75
142 143 146 137 134 110 126 139 142 155 184 204 211 196 184 211 199 216 149 159 220 247 207 193 181 198 231 296 283 256 255 236 94 84 82 86 87 77 41 31 31 30 42 44
142 140 117 101 93 80 68 84 163 191 202 215 210 207 210 229 227 229 230 218 134 208 205 177 180 197 196 312 256 256 246 92 94 83 70 71 90 71 39 20 9 25 40 33
145 136 120 110 110 76 38 24 322 246 232 232 249 244 232 232 235 227 213 218 195 164 195 181 149 102 333 286 258 353 32 29 12 52 109 122 126 91 54 31 44 42 51 51
150 125 110 87 140 95 343 298 275 262 250 247 249 259 264 263 261 246 226 193 172 163 176 159 125 131 156 215 281 4 12 2 353 347 26 82 72 69 78 76 77 82 64 39
124 123 140 262 289 235 250 273 288 258 241 242 242 248 256 250 239 229 188 156 164 167 167 152 149 160 189 230 223 174 143 307 319 325 349 36 54 54 41 74 76 61 15 324
146 155 189 222 250 248 226 224 237 236 234 231 231 235 246 249 257 244 163 162 166 172 176 164 174 183 192 223 122 60 66 324 328 336 31 21 357 1 25 31 20 313 302 304
160 218 226 238 278 283 230 229 241 238 243 247 249 254 259 218 200 206 203 200 181 171 182 169 167 175 175 141 116 100 38 55 39 22 28 33 14 2 333 254 263 269 293 351
169 175 202 261 256 284 294 278 269 263 259 250 250 246 247 230 203 216 222 206 175 169 172 163 146 142 139 138 144 148 120 50 25 353 356 334 325 320 333 348 1 17 20 29
Height
1471 1466 1466 1469 1469 1467 1471 1472 1479 1480 1479 1479 1479 1483 1486 1488 1490 1493 1496 1498 1499 1500 1502 1503 1503 1504 1506 1507 1508 1509 1509 1510 1510 1511 1513 1513 1514 1515 1515 1516 1517 1517 1517 1517
1475 1468 1467 1469 1467 1466 1467 1468 1470 1473 1479 1477 1480 1484 1487 1490 1492 1494 1496 1498 1500 1501 1502 1503 1504 1504 1506 1506 1507 1508 1508 1509 1509 1510 1510 1511 1511 1512 1513 1513 1514 1514 1514 1514
1482 1472 1472 1477 1467 1466 1466 1465 1469 1477 1478 1478 1480 1484 1488 1491 1492 1495 1497 1499 1500 1501 1502 1503 1503 1503 1505 1505 1506 1506 1507 1507 1508 1508 1508 1509 1509 1510 1510 1511 1511 1511 1511 1511
1482 1483 1495 1475 1462 1462 1465 1466 1467 1471 1475 1477 1481 1485 1488 1490 1492 1495 1497 1499 1500 1501 1502 1502 1503 1503 1504 1504 1505 1505 1505 1506 1506 1506 1507 1507 1508 1508 1508 1509 1509 1508 1509 1509
1484 1486 1481 1470 1464 1464 1467 1470 1468 1471 1474 1478 1482 1487 1489 1491 1493 1495 1497 1498 1500 1501 1501 1502 1502 1502 1502 1502 1503 1503 1503 1503 1504 1504 1505 1505 1505 1506 1506 1506 1506 1506 1506 1506
1483 1489 1489 1475 1465 1465 1468 1476 1471 1473 1475 1478 1481 1486 1490 1492 1494 1496 1497 1498 1499 1500 1501 1501 1501 1501 1501 1501 1501 1501 1501 1501 1502 1502 1503 1503 1503 1504 1504 1505 1505 1505 1505 1504
1484 1485 1477 1469 1466 1467 1479 1482 1474 1475 1477 1479 1482 1486 1490 1492 1494 1496 1497 1498 1498 1499 1499 1499 1499 1499 1499 1499 1499 1499 1499 1499 1499 1500 1501 1501 1502 1502 1502 1503 1503 1503 1503 1503
1480 1485 1484 1471 1468 1472 1478 1476 1477 1478 1480 1483 1484 1487 1490 1492 1494 1495 1496 1497 1498 1498 1498 1498 1498 1498 1498 1498 1498 1498 1497 1497 1497 1498 1499 1500 1500 1500 1501 1501 1501 1501 1501 1501
1477 1480 1477 1475 1475 1477 1476 1478 1480 1482 1484 1486 1487 1489 1491 1492 1494 1495 1495 1496 1496 1497 1497 1497 1497 1497 1497 1497 1497 1496 1496 1496 1496 1496 1497 1498 1498 1499 1499 1499 1500 1500 1500 1499
1474 1473 1476 1477 1477 1478 1478 1479 1482 1484 1485 1487 1488 1489 1491 1492 1493 1494 1495 1495 1495 1494 1495 1496 1495 1495 1495 1495 1495 1495 1494 1495 1495 1495 1495 1496 1496 1497 1497 1497 1498 1498 1498 1498
1474 1475 1477 1478 1479 1479 1479 1480 1483 1485 1486 1487 1488 1489 1491 1492 1493 1494 1494 1495 1494 1493 1494 1494 1494 1493 1493 1493 1493 1493 1493 1493 1493 1493 1494 1494 1495 1495 1496 1496 1496 1496 1496 1495
1475 1476 1477 1478 1479 1480 1481 1482 1483 1485 1486 1487 1488 1489 1490 1492 1492 1493 1494 1494 1494 1493 1493 1493 1493 1491 1491 1491 1491 1491 1491 1491 1492 1492 1492 1492 1493 1493 1494 1494 1494 1494 1494 1494
1475 1476 1477 1478 1479 1480 1481 1481 1482 1484 1485 1486 1487 1488 1489 1490 1491 1492 1493 1493 1492 1492 1492 1492 1491 1490 1490 1490 1489 1489 1489 1489 1490 1490 1490 1491 1491 1491 1492 1492 1492 1492 1491 1491
1476 1477 1478 1479 1479 1480 1480 1480 1481 1482 1483 1484 1486 1487 1489 1489 1490 1491 1491 1491 1491 1491 1491 1490 1489 1489 1488 1488 1488 1488 1488 1488 1488 1488 1488 1489 1489 1490 1490 1490 1490 1490 1489 1490
1476 1477 1478 1478 1479 1479 1479 1479 1480 1481 1482 1483 1485 1486 1487 1488 1489 1489 1490 1490 1490 1489 1489 1488 1488 1487 1486 1486 1486 1486 1486 1487 1487 1487 1487 1487 1487 1488 1488 1488 1488 1488 1488 1488
1474 1476 1477 1478 1478 1478 1478 1479 1479 1480 1481 1483 1484 1485 1486 1487 1488 1488 1488 1488 1488 1488 1487 1487 1486 1485 1485 1485 1485 1485 1485 1485 1485 1485 1486 1486 1486 1486 1486 1486 1487 1487 1487 1487
1473 1475 1476 1477 1477 1478 1478 1479 1479 1480 1481 1482 1483 1484 1485 1486 1486 1486 1487 1487 1486 1486 1486 1485 1485 1484 1484 1483 1484 1484 1484 1484 1484 1484 1484 1485 1485 1484 1484 1484 1485 1486 1486 1486
1473 1474 1475 1476 1476 1477 1478 1479 1479 1480 1480 1481 1482 1483 1484 1484 1485 1485 1485 1485 1484 1484 1484 1484 1484 1483 1483 1483 1483 1483 1483 1483 1483 1483 1483 1484 1484 1483 1483 1483 1483 1484 1485 1485
1471 1473 1474 1476 1477 1477 1478 1478 1479 1479 1480 1481 1481 1482 1482 1482 1482 1483 1483 1482 1483 1483 1483 1483 1483 1483 1482 1482 1482 1483 1483 1483 1483 1483 1483 1483 1483 1483 1483 1482 1482 1483 1484 1483
1472 1473 1474 1476 1477 1477 1478 1478 1478 1479 1479 1480 1480 1480 1480 1480 1481 1481 1481 1481 1481 1481 1481 1481 1481 1481 1481 1482 1482 1482 1483 1483 1483 1482 1482 1482 1482 1482 1482 1482 1483 1483 1482 1482
1472 1473 1474 1475 1476 1477 1477 1477 1477 1478 1478 1479 1479 1478 1479 1479 1480 1480 1479 1479 1479 1480 1480 1480 1480 1480 1480 1480 1481 1481 1482 1482 1482 1482 1482 1482 1481 1482 1482 1482 1482 1482 1481 1481
1473 1474 1475 1475 1476 1476 1476 1476 1476 1476 1476 1477 1477 1477 1477 1477 1478 1478 1478 1478 1477 1478 1478 1478 1478 1479 1479 1479 1480 1480 1481 1481 1481 1481 1481 1480 1481 1481 1481 1481 1481 1480 1480 1479
1473 1474 1474 1475 1475 1475 1475 1475 1475 1474 1474 1474 1475 1475 1475 1475 1476 1476 1476 1476 1476 1476 1476 1477 1477 1478 1478 1478 1479 1479 1479 1480 1480 1480 1480 1479 1480 1479 1479 1479 1479 1478 1478 1478
1472 1473 1474 1474 1474 1474 1474 1474 1473 1473 1473 1473 1473 1473 1474 1474 1474 1474 1474 1474 1474 1474 1474 1475 1475 1476 1477 1477 1477 1478 1478 1478 1478 1478 1478 1478 1478 1478 1478 1477 1477 1477 1476 1476
1472 1473 1473 1473 1473 1473 1472 1472 1472 1472 1472 1472 1472 1472 1472 1472 1472 1472 1472 1472 1472 1473 1473 1473 1474 1475 1475 1475 1476 1476 1476 1476 1476 1476 1476 1476 1476 1476 1476 1475 1475 1475 1475 1475
1471 1472 1472 1472 1472 1472 1472 1472 1471 1471 1471 1470 1470 1470 1470 1470 1470 1470 1470 1471 1471 1471 1472 1472 1472 1473 1473 1474 1474 1474 1474 1475 1475 1475 1475 1475 1475 1474 1474 1474 1474 1474 1473 1473
1471 1471 1471 1472 1472 1471 1471 1471 1471 1470 1470 1469 1469 1469 1469 1469 1469 1469 1469 1470 1470 1470 1470 1471 1471 1471 1472 1472 1473 1473 1473 1473 1474 1474 1473 1473 1473 1473 1473 1472 1472 1472 1471 1470